#timestamp,LO_Frequency,Hit,StdDev 
1648782015.7,286047004.3,N
1648782035.6,286047006.0,Y
1648782055.4,286047001.8,P
1648782075.3,286047003.0,P
1648782095.1,286047001.5,N
1648782096.0,286047001.5,N
1648782115.8,286047002.4,Y
1648782135.7,286046999.4,P
1648782155.5,286046999.6,N
1648782175.3,286046998.4,N
1648782195.2,286046998.1,N
1648782215.0,286047002.7,N
1648782215.9,286047002.7,N
1648782235.8,286047000.1,N
1648782255.6,286047001.2,N
1648782275.5,286047001.1,N
1648782295.3,286047000.6,N
1648782315.1,286047002.6,N
1648782335.9,286047000.5,N
1648782355.7,286047000.0,N
1648782375.6,286046998.3,N
1648782395.4,286047000.3,N
1648782415.2,286047001.4,N
1648782435.1,286047000.2,N
1648782436.0,286047000.2,N
1648782455.8,286047000.6,N
1648782475.7,286046998.2,N
1648782495.5,286047000.8,N
1648782515.3,286047001.2,N
1648782535.2,286047000.3,N
1648782555.0,286047000.2,N
1648782555.9,286047000.2,N
1648782575.7,286047002.7,N
1648782595.6,286047002.4,N
1648782615.4,286047002.4,N
1648782635.3,286047001.3,N
1648782655.1,286047000.1,N
1648782675.8,286047000.1,N
1648782695.7,286047002.3,N
1648782715.5,286047004.2,Y
1648782735.4,286047000.6,P
1648782755.2,286046999.2,P
1648782775.0,286046999.6,N
1648782775.9,286046999.6,N
1648782795.8,286046996.5,Y
1648782815.6,286046999.6,P
1648782835.5,286046999.0,P
1648782855.3,286046996.5,P
1648782875.1,286047000.7,N
1648782895.9,286046999.3,N
1648782915.7,286046998.9,N
1648782935.5,286046997.4,N
1648782955.4,286046997.3,N
1648782975.2,286046999.1,N
1648782995.1,286046998.8,N
1648782996.0,286046998.8,N
1648783015.8,286046998.7,N
1648783035.6,286046999.3,N
1648783055.5,286046999.3,N
1648783075.3,286046996.8,Y
1648783095.1,286047000.1,P
1648783115.9,286047000.6,N
1648783135.7,286047002.0,N
1648783155.6,286047002.4,N
1648783175.4,286047002.8,N
1648783195.2,286046998.6,N
1648783215.1,286046998.4,N
1648783216.0,286046998.4,N
1648783235.8,286047000.8,N
1648783255.6,286046998.3,N
1648783275.5,286047000.6,N
1648783295.3,286047002.0,N
1648783315.2,286047001.6,N
1648783335.9,286046999.9,N
1648783355.7,286047000.6,N
1648783375.6,286047000.7,N
1648783395.4,286046999.3,N
1648783415.3,286047001.0,N
1648783435.1,286047000.8,N
1648783436.0,286047000.8,N
1648783455.8,286047000.5,N
1648783475.7,286047000.6,N
1648783495.5,286047000.3,N
1648783515.3,286047000.1,N
1648783535.2,286047002.8,N
1648783555.0,286047004.2,Y
1648783555.9,286047004.2,P
1648783575.8,286047002.5,N
1648783595.6,286047002.0,N
1648783615.4,286047000.2,N
1648783635.3,286047000.6,N
1648783655.1,286047002.4,N
1648783675.9,286047002.5,N
1648783695.7,286047001.6,N
1648783715.5,286047002.6,N
1648783735.4,286047000.6,N
1648783755.2,286046998.5,N
1648783775.0,286046999.0,N
1648783775.9,286046999.0,N
1648783795.8,286047001.0,N
1648783815.6,286047000.1,N
1648783835.5,286046999.9,N
1648783855.3,286047000.4,N
1648783875.1,286047001.5,N
1648783895.9,286047000.5,N
1648783915.7,286046998.3,N
1648783935.5,286046999.8,N
1648783955.4,286047001.0,N
1648783975.2,286047000.2,N
1648783995.1,286046999.9,N
1648783996.0,286046999.9,N
1648784015.8,286047002.8,N
1648784035.6,286047000.2,N
1648784055.5,286046998.2,N
1648784075.3,286047001.0,N
1648784095.2,286047000.6,N
1648784115.0,286047000.6,N
1648784115.9,286047000.6,N
1648784135.7,286047000.8,N
1648784155.6,286047000.7,N
1648784175.4,286047002.4,N
1648784195.3,286046998.8,N
1648784215.1,286046998.5,N
1648784235.8,286046998.6,N
1648784255.7,286046998.5,N
1648784275.5,286047002.6,N
1648784295.4,286047004.0,Y
1648784315.2,286047000.2,P
1648784335.0,286047002.4,P
1648784335.9,286047002.4,N
1648784355.8,286047001.2,N
1648784375.6,286046998.3,N
1648784395.4,286047000.0,N
1648784415.3,286047001.7,N
1648784435.1,286047002.0,N
1648784455.9,286046999.8,N
1648784475.7,286047002.3,N
1648784495.5,286047002.5,N
1648784515.4,286047004.0,Y
1648784535.2,286047004.4,P
1648784555.1,286047003.7,N
1648784556.0,286047003.7,N
1648784575.8,286047003.7,N
1648784595.6,286047004.4,Y
1648784615.5,286047001.1,P
1648784635.3,286046998.9,N
1648784655.2,286047001.2,N
1648784675.9,286047001.0,N
1648784695.7,286047000.7,N
1648784715.6,286047001.2,N
1648784735.4,286046996.7,N
1648784755.2,286046996.8,N
1648784775.1,286046996.5,N
1648784776.0,286046996.5,N
1648784795.8,286046996.7,N
1648784815.7,286046997.8,N
1648784835.5,286046997.0,N
1648784855.3,286046996.7,N
1648784875.2,286046994.9,N
1648784895.0,286046996.5,N
1648784895.9,286046996.5,N
1648784915.7,286046997.2,N
1648784935.6,286046999.0,N
1648784955.4,286046999.3,N
1648784975.3,286046997.1,N
1648784995.1,286046997.0,N
1648784996.0,286046997.0,N
1648785015.8,286046999.2,N
1648785035.7,286046999.6,N
1648785055.5,286046999.0,N
1648785075.3,286046998.9,N
1648785095.2,286046999.4,N
1648785115.0,286046998.1,N
1648785115.9,286046998.1,N
1648785135.8,286046999.4,N
1648785155.6,286046998.3,N
1648785175.4,286046999.4,N
1648785195.3,286046997.4,N
1648785215.1,286046995.4,Y
1648785235.9,286046997.0,P
1648785255.7,286046999.5,N
1648785275.5,286046996.7,P
1648785295.4,286046996.9,N
1648785315.2,286046998.5,N
1648785335.1,286046998.1,N
1648785336.0,286046998.1,N
1648785355.8,286046999.6,N
1648785375.6,286046996.9,Y
1648785395.5,286047001.0,P
1648785415.3,286047000.0,N
1648785435.1,286047002.8,N
1648785455.9,286047000.0,N
1648785475.7,286046998.2,N
1648785495.6,286047000.9,N
1648785515.4,286047000.5,N
1648785535.2,286047000.7,N
1648785555.1,286047001.2,N
1648785556.0,286047001.2,N
1648785575.8,286047000.7,N
1648785595.7,286047001.5,N
